TimeEDT,TemperatureF,Dew PointF,Humidity,Sea Level PressureIn,VisibilityMPH,Wind Direction,Wind SpeedMPH,Gust SpeedMPH,PrecipitationIn,Events,Conditions,WindDirDegrees,DateUTC
12:53 AM,78.1,71.1,79,30.02,10.0,SSW,3.5,-,N/A,,Clear,210,2013-06-26 04:53:00
1:53 AM,77.0,71.1,82,30.01,10.0,Calm,Calm,-,N/A,,Clear,0,2013-06-26 05:53:00
2:53 AM,75.0,71.1,87,29.99,10.0,Calm,Calm,-,N/A,,Clear,0,2013-06-26 06:53:00
3:53 AM,73.9,71.1,91,29.99,10.0,Calm,Calm,-,N/A,,Clear,0,2013-06-26 07:53:00
4:53 AM,73.9,71.1,91,30.00,10.0,Calm,Calm,-,N/A,,Clear,0,2013-06-26 08:53:00
5:53 AM,73.0,70.0,90,30.02,10.0,Calm,Calm,-,N/A,,Scattered Clouds,0,2013-06-26 09:53:00
6:53 AM,73.0,70.0,90,30.04,10.0,West,3.5,-,N/A,,Mostly Cloudy,260,2013-06-26 10:53:00
7:53 AM,75.0,71.1,87,30.06,10.0,Calm,Calm,-,N/A,,Mostly Cloudy,0,2013-06-26 11:53:00
8:53 AM,78.1,71.1,79,30.05,10.0,SSW,5.8,-,N/A,,Mostly Cloudy,200,2013-06-26 12:53:00
9:53 AM,80.1,71.1,74,30.05,10.0,SW,3.5,-,N/A,,Mostly Cloudy,220,2013-06-26 13:53:00
10:53 AM,84.0,71.1,65,30.03,10.0,SW,12.7,-,N/A,,Mostly Cloudy,220,2013-06-26 14:53:00
11:53 AM,87.1,71.1,59,30.04,10.0,WNW,6.9,-,N/A,,Mostly Cloudy,290,2013-06-26 15:53:00
12:53 PM,88.0,71.1,57,30.01,10.0,SSW,8.1,18.4,0.00,,Mostly Cloudy,210,2013-06-26 16:53:00
1:53 PM,89.1,68.0,50,30.00,10.0,SW,10.4,18.4,N/A,,Mostly Cloudy,220,2013-06-26 17:53:00
2:53 PM,90.0,66.9,46,29.96,10.0,SSW,12.7,-,N/A,,Mostly Cloudy,210,2013-06-26 18:53:00
3:53 PM,90.0,68.0,48,29.94,10.0,SSW,9.2,-,N/A,,Mostly Cloudy,210,2013-06-26 19:53:00
4:53 PM,91.0,68.0,47,29.94,10.0,WSW,11.5,-,N/A,,Mostly Cloudy,240,2013-06-26 20:53:00
5:53 PM,91.0,69.1,48,29.90,10.0,SW,10.4,18.4,N/A,,Mostly Cloudy,220,2013-06-26 21:53:00
6:53 PM,90.0,68.0,48,29.89,10.0,SSW,9.2,-,N/A,,Mostly Cloudy,200,2013-06-26 22:53:00
7:53 PM,89.1,70.0,53,29.89,10.0,SW,9.2,-,N/A,,Mostly Cloudy,220,2013-06-26 23:53:00
8:53 PM,84.9,73.0,67,29.90,10.0,South,5.8,-,N/A,,Mostly Cloudy,170,2013-06-27 00:53:00
9:53 PM,82.9,73.0,72,29.88,10.0,South,6.9,-,N/A,,Scattered Clouds,170,2013-06-27 01:53:00
10:53 PM,82.0,73.0,74,29.90,10.0,SSE,5.8,-,N/A,,Scattered Clouds,160,2013-06-27 02:53:00
11:53 PM,81.0,73.0,77,29.95,10.0,South,4.6,-,N/A,,Scattered Clouds,190,2013-06-27 03:53:00